SL-16 DEB, 23708

Orbit data source: Space-Track

SL-16 DEB, 23708 is space debris in LEO originally from a launch on Tue, 31 Oct 1995 UTC launched from the Tyuratam Missile And Space Complex (TTMTR). Debris objects in space refer to the collection of defunct objects orbiting the Earth. Examples of debris include non-operational satellites, rocket bodies, and fragments generated from explosions, collisions, or faulty payload assembly.

Loading next visibility...
Identifier
23708, 1995-058E
Orbit
LEO
Country
Flag of CISCIS
Related business
Manufacturer
Yuzhnoe
Mission
Spacecraft
Bus & Motor
SEP MOTOR COVER, Unknown motor
Mass
~0 kg wet, ~1 kg dry
Launch date (UTC)
1995-10-31 (30 years ago)
Launch vehicle
Unknown
Launch site
Tyuratam Missile And Space Complex (TTMTR)
Object type
Payload
Rocket body
Debris
Shape & HBR
Unknown
Radar Cross Section
Small (<0.1 m²)

Expand to show TLE details & history
Last TLE update: 9 hours ago

TLE from 9 hours ago
0 SL-16 DEB
1 23708U 95058E   25260.92818507  .00000090  00000-0  11971-3 0  9993
2 23708  71.0500 217.4108 0187328 283.7072 133.2055 13.76650984500649
Epoch: 2025-09-17T22:16Z
TLE epoch observation values (Epoch: 2025-09-17T22:16:35.19Z)
Latitude
53.81664°
Longitude
-85.9923°
Altitude
1,079.749 km
Speed
7.27 km/s
True Right ascension
16h 21m 00s
True Declination
53° 39' 35"
Sunlit
Object was in daylight at epoch
Visualization orbit readout
Latitude
Unknown
Longitude
Unknown
Altitude
Unknown
Speed
Unknown
Apparent Right ascension
Unknown
Apparent Declination
Unknown
Sunlit
N/A
Visualization observer readout
Local Sidereal Time
00:19:59
Azimuth
Unknown
Elevation
Unknown
Doppler factor
Unknown
Orbital elements
Apogee altitude
1,111.467 km
Perigee altitude
836.025 km
Semi-major axis
7,351.883 km
Eccentricity
0.01873
Inclination
71.05°
RAAN
217.4108°
Arg. of periapsis
283.7072°
True anomaly
134.74529°
Mean anomaly
133.2055°
Eccentric anomaly
133.97786°
Mean motion
3.44307 °/min
Orbital period
104.56 mins
BSTAR
0.00011971
Loading maneuver chart data...
Computing Atmospheric mass density...
Loading historical data...
Loading historical data...
Loading historical data...
Loading historical data...
Loading historical data...
Loading historical data...
Loading historical data...

Documentation

Showing up to 5 results
|